www.pogodaiklimat.ru
Время
и дата
00:54 19.05
01:54 19.05
02:54 19.05
03:54 19.05
04:54 19.05
05:54 19.05
06:54 19.05
07:54 19.05
08:54 19.05
09:54 19.05
10:54 19.05
11:54 19.05
12:54 19.05
13:54 19.05
14:54 19.05
15:54 19.05
16:54 19.05
17:54 19.05
18:54 19.05
19:54 19.05
20:54 19.05
21:54 19.05
22:54 19.05
23:54 19.05
00:54 20.05
01:54 20.05
02:54 20.05
03:54 20.05
04:54 20.05
05:54 20.05
06:54 20.05
07:54 20.05
08:54 20.05
09:54 20.05
10:54 20.05
11:54 20.05
12:54 20.05
13:54 20.05
14:54 20.05
15:54 20.05
16:54 20.05
17:54 20.05
18:54 20.05
19:54 20.05
20:54 20.05
21:54 20.05
22:54 20.05
01:54 21.05
Ветер
(напр.,м/с)
Видим. Явления Облачность Т
(С)
Тd
(С)
f
(%)
Тe
(С)
Тes
(С)
Комфортность P
(гПа)
Po
(гПа)
Тmin
(С)
Tmax
(С)
R
(мм)
R24
(мм)
S
(см)
Ю 2 16 км ясно +13.3 +10.0 80 +13 +13 1015.4 1003.4 +13.3 +21.1
ЮВ 2 16 км ясно +12.8 +9.4 80 +12 +12 1015.4 1003.4
Ю 2 16 км 10/10 1950 м +13.3 +10.0 80 +13 +13 1015.8 1003.7
штиль 0 16 км 10/0 2100 m
[Ac]
+13.9 +10.6 80 +14 +14 1016.0 1003.7
Ю 2 16 км 8/0 2100 m
[Ac]
+13.9 +10.6 80 +13 +13 1016.2 1004.0
Ю 2 16 км 8/8 1950 м +15.6 +10.6 72 +16 +16 1016.7 1004.7
Ю 4 16 км 8/8 1800 м +17.8 +11.7 67 +18 +18 1017.2 1005.0 +12.2 +17.8 0.3
Ю 5 16 км 10/10 1800 м +18.3 +11.1 63 +18 +18 1017.4 1005.4
Ю 4 16 км 8/8 1800 м +20.0 +11.7 59 +22 +23 комфорт 1017.0 1004.7
ЮЗ 3 16 км 8/5 1800 m
[Ac]
+21.7 +12.2 55 +24 +27 комфорт 1016.5 1004.4
ЮЗ 3 16 км 8/8 1800 м +23.3 +11.7 48 +26 +28 жарко 1016.2 1004.0
ЮЗ 3 16 км 8/8 1800 м +24.4 +11.1 43 +26 +29 жарко 1015.5 1003.4
В 2 16 км 5/5 1410 м +24.4 +11.1 43 +26 +35 жарко 1015.0 1002.7 +17.8 +25.6
штиль 0 16 км 5/5 1650 м +26.1 +10.6 38 +27 +39 жарко 1014.1 1002.0
ЮВ 3 16 км 5/5 1800 м +25.0 +10.0 39 +26 +32 жарко 1013.6 1001.7
штиль 0 16 км 5/5 1800 м +26.7 +10.0 35 +27 +35 жарко 1013.3 1001.3
В 2 16 км 2/2 1800 м +26.1 +10.6 38 +27 +33 жарко 1013.6 1001.7
В 4 16 км ясно +25.6 +10.6 39 +27 +29 жарко 1013.6 1001.7
ЮВ 5 16 км ясно +23.3 +11.1 46 +26 +26 жарко 1013.7 1001.7 +23.3 +27.2
ЮВ 5 16 км ясно +21.7 +11.1 51 +24 +24 комфорт 1014.4 1002.3
ЮВ 5 16 км ясно +20.6 +11.7 57 +23 +23 комфорт 1014.6 1002.7
ЮВ 2 16 км ясно +19.4 +11.7 61 +21 +21 комфорт 1014.9 1002.7
Ю 2 16 км ясно +18.3 +12.2 68 +19 +19 1015.2 1003.0
Ю 2 16 км ясно +16.1 +12.2 78 +16 +16 1015.2 1003.0
Ю 3 16 км ясно +16.7 +12.2 75 +16 +16 1015.0 1003.0 +16.1 +23.3
ЮВ 2 16 км ясно +15.6 +11.7 78 +16 +16 1015.0 1003.0
ЮВ 2 16 км ясно +15.6 +11.7 78 +16 +16 1014.9 1002.7
ЮВ 2 16 км ясно +16.7 +11.7 72 +17 +17 1014.9 1003.0
Ю 4 16 км ясно +16.7 +12.2 75 +16 +16 1015.0 1003.0
Ю 4 16 км ясно +17.8 +12.8 73 +18 +18 1016.0 1004.0
ЮЗ 6
{10}
16 км 5/2 1500 m
[Ac]
+18.9 +12.8 68 +19 +20 1015.9 1003.7 +15.6 +18.9
Ю 5 16 км 5/0 7500 m
[Ci]
+20.6 +12.8 61 +23 +25 комфорт 1015.4 1003.4
Ю 5 16 км 8/0 6000 m
[Ac Ci]
+22.2 +13.3 57 +25 +28 комфорт 1015.4 1003.4
Ю 5 16 км 8/0 6000 m
[Ac Ci]
+22.8 +13.9 57 +26 +30 жарко 1015.4 1003.4
Ю 4 16 км 8/2 1350 m
[Ac Ci]
+25.0 +14.4 52 +28 +33 жарко 1015.1 1003.0
Ю 4 16 км 8/2 1350 m
[Ac Ci]
+26.1 +13.9 47 +28 +34 жарко 1014.5 1002.3
ЮВ 3 16 км 8/2 1500 m
[Ac Ci]
+28.3 +12.8 38 +30 +37 жарко 1013.6 1001.7 +18.9 +28.3
Ю 4 16 км 8/2 1950 m
[Ci]
+28.3 +12.8 38 +30 +38 жарко 1012.9 1001.0
ЮЗ 5
{8}
16 км 5/2 1950 m
[Ci]
+28.9 +13.9 40 +31 +37 жарко 1012.3 1000.3
ЮЗ 4 16 км 5/0 2100 m
[Ac Ci]
+29.4 +13.3 37 +31 +37 жарко 1011.8 999.7
Ю 5 16 км 5/0 7500 m
[Ci]
+28.9 +13.3 38 +30 +34 жарко 1011.3 999.3
Ю 4 16 км 5/0 7500 m
[Ci]
+28.3 +13.3 40 +30 +32 жарко 1011.3 999.3
Ю 3 16 км 5/0 3600 m
[Ac Ci]
+26.7 +14.4 47 +29 +30 жарко 1011.2 999.3 +26.7 +29.4
Ю 2 16 км 5/0 2550 m
[Ac Ci]
+24.4 +14.4 54 +27 +27 жарко 1011.7 999.7
Ю 3 16 км 2/0 2700 m
[Ac]
+23.9 +13.3 51 +26 +26 жарко 1012.1 1000.0
Ю 4 16 км 2/0 2700 m
[Ac]
+23.9 +13.3 51 +26 +26 жарко 1012.0 1000.0
Ю 3 16 км 2/0 2100 m
[Ac]
+22.8 +13.3 55 +26 +26 жарко 1011.9 1000.0
Ю 2 16 км ясно +18.3 +13.9 76 +19 +19 1011.9 1000.0
Местоположение метеостанции Burlington International Airport: широта 44.4683 долгота -73.1500 высота над уровнем моря 101 м.
В архиве по умолчанию представлена погода в Барлингтоне за последние 1-2 суток. Обновление информации о фактической погоде в базе происходит ежечасно! Архивные данные за месяц целиком и за предыдущие месяцы Вы можете получить, выбрав интересующий диапазон дат из раскрывающегося списка и нажав кнопку "Ввод!".
Внимание! Архив погоды МЕТАР в базе сайта по станциям, не включенным в климатический монитор, хранится не более 60 дней. Нет смысла пытаться выбрать более раннюю дату.
*Определитесь, кто Вы:
Внимание! Время в таблицах - местное (без учета летнего времени). Для получения всемирного времени необходимо вычесть поправку, которая равна -5 ч.
Смотрите также архив погоды в соседних городах и на ближайших метеорологических станциях:
Партнеры нашего сайта:      
Пояснения к столбцам:
  • Ветер - указаны скорость ветра в м/с - средняя за 10 мин, порывы в срок и между сроками (в фигурных скобках) и направление, откуда дует ветер: С - северный,
  • СВ - северо-восточный, В - восточный, ЮВ - юго-восточный, Ю - южный, ЮЗ - юго-западный, З - западный, СЗ - северо-западный.
  • Видимость - горизонтальная дальность видимости в метрах или километрах. При видимости от 1 до 10 км при отсутствии осадков обычно наблюдается дымка, при ухудшении видимости до 1 км и менее - туман. В сухую погоду видимость может ухудшаться дымом, пылью или мглою.
  • Явления - указаны атмосферные явления, наблюдавшиеся в срок или в последний час перед сроком; фигурными скобками обозначены явления, наблюдавшиеся между сроками (за 1-3 часа до срока); квадратными скобками обозначены град или гололедные отложения с указанием их диаметра в мм.
  • Облачность - указаны через наклонную черту общая и нижняя облачность в баллах и высота нижней границы облаков в метрах; квадратными скобками обозначены формы облаков: Ci - перистые, Cs - перисто-слоистые, Cc - перисто-кучевые, Ac - высококучевые, As - высокослоистые, Sc - слоисто-кучевые, Ns - слоисто-дождевые, Cu - кучевые, Cb - кучево-дождевые. Подробнее классификацию облаков см. в Атласе облаков (PDF).
  • T - Температура воздуха - температура, измеренная на высоте 2 м над землей.
  • Td - Температура точки росы - температура, при понижении до которой содержащийся в воздухе водяной пар достигнет насыщения.
  • f - Относительная влажность воздуха - влажноcть воздуха, измеренная на высоте 2 м над землей.
  • Te - Эффективная температура - температура, которую ощущает одетый по сезону человек в тени. Характеристика душности погоды. При расчете учитывается влияние влажности воздуха и скорости ветра на теплоощущения человека.
  • Tes - Эффективная температура на солнце - температура, которую ощущает человек, с поправкой на солнечный нагрев. Характеристика знойности погоды. Зависит от высоты солнца над горизонтом, облачности и скорости ветра. Ночью, в пасмурную погоду, а также при ветре 12 м/с и более поправка равна нулю.
  • P - Атмосферное давление - приведенное к уровню моря атмосферное давление.
  • Po - Атмосферное давление - измеренное на уровне метеостанции атмосферное давление.
  • Tmin - Минимальная температура - минимум температуры воздуха на высоте 2 м над землей.
  • Tmax - Максимальная температура - максимум температуры воздуха на высоте 2 м над землей.
  • R - Количество осадков - Количество выпавших осадков за период времени, мм. При наведении курсора мыши на число - период времени, за который выпало указанное количество осадков.
  • R24 - Количество осадков - Количество выпавших осадков за 24 часа, мм.
  • S - Снежный покров - Высота снежного покрова, см. При наведении курсора мыши на число - состояние снежного покрова и степень покрытия местности в баллах.